GW1640 Weather Reports


time (UTC)temp
C
wind
direction
speed
KPH
gust
KPH
rain 1hr
cm
rain 24hr
cm
rain mn
cm
humidity
%
barometer
mb
20260506034026 9 137 3.2 6.4 0.00 2.26 0.00 98 1005.3
20260506033021 9 185 1.6 4.8 0.00 2.26 0.00 98 1005.2
20260506032016 9 181 1.6 3.2 0.00 2.26 0.00 98 1005.1
20260506031031 9 159 1.6 3.2 0.00 2.26 0.00 98 1005.3
20260506030026 9 157 3.2 9.7 0.00 2.26 0.00 98 1005.4
20260506025021 9 147 8.0 12.9 0.00 2.26 0.00 98 1005.3
20260506024016 9 135 6.4 12.9 0.00 2.26 0.00 97 1005.3
20260506023051 9 134 3.2 4.8 0.00 2.26 0.00 96 1005.4
20260506022026 10 112 3.2 4.8 0.00 2.26 0.00 97 1005.4
20260506021041 10 112 3.2 4.8 0.00 2.26 0.00 97 1005.6
20260506020036 10 163 0.0 1.6 0.00 2.26 0.00 96 1005.7
20260506015031 10 161 1.6 3.2 0.00 2.26 0.00 96 1005.8
20260506014026 10 263 1.6 3.2 0.00 2.26 0.00 97 1005.7
20260506013020 10 189 1.6 4.8 0.00 2.26 0.00 97 1005.6
20260506012015 10 213 3.2 6.4 0.00 2.26 0.00 97 1005.7
20260506010025 10 173 1.6 4.8 0.00 2.26 0.00 95 1005.7
20260506005021 10 151 1.6 3.2 0.00 2.26 0.00 94 1005.5
20260506004016 10 190 1.6 3.2 0.00 2.26 0.00 93 1005.6
20260506003031 10 0.0 0.0 0.00 2.26 0.00 93 1005.4
20260506002026 11 197 1.6 3.2 0.00 2.26 0.00 94 1005.3
20260506001021 11 198 1.6 3.2 0.00 2.26 0.00 94 1005.5
20260506000135 11 206 3.2 6.4 0.00 2.26 0.00 94 1005.7
20260505235049 11 215 1.6 4.8 0.00 2.26 0.00 94 1005.8
20260505234017 11 220 1.6 4.8 0.00 2.26 0.00 95 1005.9
20260505233031 11 227 3.2 9.7 0.00 2.26 0.00 94 1006.0
20260505232027 12 207 1.6 6.4 0.00 2.26 0.00 94 1005.8
20260505230016 12 112 1.6 3.2 0.00 2.26 0.00 96 1005.5
20260505225035 12 131 0.0 3.2 0.00 2.26 0.00 93 1005.5
20260505224126 12 132 1.6 3.2 0.00 2.26 0.00 93 1005.4
20260505223021 12 130 0.0 3.2 0.00 2.26 0.00 92 1005.4
20260505222016 12 130 1.6 3.2 0.00 2.26 0.00 92 1005.3
20260505221031 12 125 3.2 4.8 0.00 2.26 0.00 92 1005.2
20260505220026 12 221 0.0 1.6 0.00 2.26 2.26 93 1005.5
20260505214016 13 223 3.2 6.4 0.00 2.26 2.26 93 1005.7
20260505213031 13 226 3.2 6.4 0.00 2.26 2.26 94 1005.6
20260505212026 13 239 1.6 3.2 0.00 2.26 2.26 93 1005.5
20260505211120 13 0.0 0.0 0.00 2.26 2.26 94 1005.3
20260505210015 13 253 6.4 11.3 0.00 2.26 2.26 96 1005.1
20260505205131 13 265 8.0 16.1 0.03 2.26 2.26 97 1005.0
20260505204046 13 255 6.4 9.7 0.15 2.26 2.26 96 1005.0
20260505203021 13 252 4.8 6.4 0.30 2.26 2.26 94 1005.0
20260505202016 13 101 3.2 6.4 0.56 2.26 2.26 93 1004.6
20260505201032 13 336 4.8 11.3 0.74 2.26 2.26 94 1004.7
20260505200523 13 283 6.4 9.7 0.74 2.26 2.26 94 1004.9
20260505195517 13 153 1.6 4.8 0.71 2.26 2.26 92 1005.0
20260505194532 13 41 3.2 9.7 0.66 2.21 2.21 93 1004.8
20260505193528 13 245 11.3 20.9 0.51 2.03 2.03 93 1004.6
20260505192523 13 238 12.9 22.5 0.38 1.88 1.88 91 1004.5
20260505191518 13 230 9.7 17.7 0.69 1.68 1.65 87 1004.6
20260505190533 13 242 8.0 16.1 1.02 1.55 1.52 85 1004.2
20260505185528 13 224 12.9 27.4 1.30 1.55 1.52 86 1003.9
20260505183619 14 55 19.3 33.8 1.35 1.55 1.52 83 1002.5
20260505182534 13 357 9.7 22.5 1.32 1.50 1.47 83 1002.7
20260505181530 14 44 9.7 24.1 0.81 0.99 0.97 85 1003.6
20260505180525 15 197 8.0 12.9 0.41 0.53 0.51 82 1003.8
20260505175520 15 201 3.2 11.3 0.18 0.25 0.23 82 1003.6
20260505174534 16 280 9.7 20.9 0.20 0.23 0.23 81 1003.1
20260505173529 16 305 17.7 35.4 0.18 0.20 0.18 78 1002.9
20260505172525 17 269 11.3 24.1 0.18 0.18 0.18 80 1002.9
20260505171520 17 327 3.2 11.3 0.15 0.15 0.15 78 1002.6
20260505170535 17 288 3.2 6.4 0.13 0.13 0.13 78 1002.5
20260505165629 18 229 3.2 6.4 0.08 0.08 0.08 69 1002.4
20260505164524 20 201 4.8 9.7 0.03 0.03 0.03 61 1002.4
20260505163519 21 72 11.3 20.9 0.00 0.00 0.00 54 1002.4
20260505162534 21 47 11.3 17.7 0.00 0.00 0.00 50 1002.3
20260505161529 21 59 8.0 14.5 0.00 0.00 0.00 50 1002.5
20260505160524 22 69 9.7 16.1 0.00 0.00 0.00 49 1002.7
20260505152645 23 81 9.7 14.5 0.00 0.00 0.00 44 1002.9
20260505151540 23 74 12.9 24.1 0.00 0.00 0.00 43 1003.0
20260505150535 23 87 11.3 17.7 0.00 0.00 0.00 45 1003.0
20260505140525 23 56 8.0 14.5 0.00 0.00 0.00 41 1003.6
20260505123522 25 4 6.4 14.5 0.00 0.00 0.00 38 1004.2
20260505122517 26 356 8.0 14.5 0.00 0.00 0.00 36 1004.3
20260505121532 26 35 8.0 20.9 0.00 0.00 0.00 32 1004.3
20260505120527 27 290 6.4 11.3 0.00 0.00 0.00 32 1004.4
20260505115523 27 120 3.2 11.3 0.00 0.00 0.00 32 1004.5
20260505114537 26 138 4.8 12.9 0.00 0.00 0.00 33 1004.7
20260505113632 25 131 3.2 6.4 0.00 0.00 0.00 30 1004.7
20260505112527 25 280 4.8 12.9 0.00 0.00 0.00 32 1004.8
20260505101533 23 265 3.2 4.8 0.00 0.00 0.00 39 1005.6
20260505100528 23 5 6.4 16.1 0.00 0.00 0.00 39 1005.7
20260505095523 23 100 4.8 9.7 0.00 0.00 0.00 42 1005.8
20260505094517 23 9 4.8 12.9 0.00 0.00 0.00 40 1005.8
20260505093532 23 35 6.4 14.5 0.00 0.00 0.00 44 1006.1
20260505092528 23 62 6.4 11.3 0.00 0.00 0.00 47 1006.1
20260505091522 22 257 6.4 16.1 0.00 0.00 0.00 45 1006.2
20260505090517 22 21 4.8 9.7 0.00 0.00 0.00 46 1006.3
20260505085533 21 305 4.8 11.3 0.00 0.00 0.00 48 1006.3
20260505084528 21 289 6.4 12.9 0.00 0.00 0.00 49 1006.4
20260505083523 21 290 3.2 4.8 0.00 0.00 0.00 50 1006.5
20260505081533 21 254 6.4 11.3 0.00 0.00 0.00 51 1006.6
20260505080529 21 288 3.2 6.4 0.00 0.00 0.00 52 1006.7
20260505075525 20 279 1.6 4.8 0.00 0.00 0.00 54 1006.7
20260505074519 20 359 3.2 6.4 0.00 0.00 0.00 53 1006.9
20260505073534 20 58 0.0 1.6 0.00 0.00 0.00 57 1006.9
20260505072629 20 25 3.2 4.8 0.00 0.00 0.00 57 1006.9
20260505070518 19 62 1.6 4.8 0.00 0.00 0.00 62 1007.1
20260505065533 18 45 1.6 4.8 0.00 0.00 0.00 66 1007.2
20260505064528 18 44 3.2 4.8 0.00 0.00 0.00 68 1007.3
20260505063524 17 301 0.0 3.2 0.00 0.00 0.00 69 1007.4
20260505062519 16 285 0.0 1.6 0.00 0.00 0.00 72 1007.4
20260505061533 16 354 1.6 3.2 0.00 0.00 0.00 72 1007.4
20260505060629 15 23 1.6 3.2 0.00 0.00 0.00 77 1007.4
20260505055623 14 280 0.0 1.6 0.00 0.00 0.00 81 1007.4
20260505054638 13 282 1.6 4.8 0.00 0.00 0.00 83 1007.4
20260505053533 12 108 1.6 3.2 0.00 0.00 0.00 84 1007.6
20260505052528 12 0.0 0.0 0.00 0.00 0.00 85 1007.4
20260505051643 12 107 0.0 1.6 0.00 0.00 0.00 86 1007.6
20260505050518 11 0.0 0.0 0.00 0.00 0.00 87 1007.6
20260505041532 11 37 3.2 6.4 0.00 0.00 0.00 88 1007.6
20260505040626 10 250 4.8 6.4 0.00 0.00 0.00 88 1007.6
20260505035521 11 158 1.6 4.8 0.00 0.00 0.00 87 1007.4
20260505034516 11 81 1.6 1.6 0.00 0.00 0.00 87 1007.5